This demonstration page uses our WeatherBlox Daily Observations layout. Learn more.

Left ArrowRight Arrow

41.86663, -103.66717

Hourly Observations for March 19, 2018

Temp ( °F °C ) Dew Point ( °F °C ) Humidity (%) Winds ( mph kmh ) Pressure ( in mb ) Visibility ( mi km ) Precip ( " mm )
12:22 am 00:22 Cloudy with Light Snow 34 1 28 -2 81 81 NNW 16 26 30.03 1017 9 14 N/A
12:53 am 00:53 Cloudy with Light Snow 32 undefined 29 -1.7 88 88 NNW 15 24 29.96 1015 3 5 N/A
1:04 am 01:04 Cloudy with Light Snow 32 undefined 28 -2 87 87 NW 14 22 30.03 1017 5 8 N/A
1:37 am 01:37 Cloudy with Light Snow 32 undefined 29 -1.7 88 88 N 9 15 30.03 1017 9 14 0.02 0.51
1:53 am 01:53 Cloudy 32 undefined 29 -1.7 88 88 N 8 13 29.96 1015 10 16 0.02 0.51
2:23 am 02:23 Cloudy 32 undefined 28 -2.2 85 85 NNW 18 30 30.03 1017 10 16 N/A
2:53 am 02:53 Clear 32 undefined 28 -2.2 85 85 NNW 20 31 29.95 1014 10 16 N/A
3:04 am 03:04 Cloudy 32 undefined 28 -2 87 87 NW 17 28 30.03 1017 10 16 N/A
3:48 am 03:48 Cloudy 32 undefined 27 -3 80 80 NNW 22 35 30.03 1017 10 16 N/A
3:53 am 03:53 Cloudy 31 -0.6 26 -3.3 82 82 NNW 17 28 29.96 1015 10 16 N/A
4:26 am 04:26 Cloudy 30 -1 25 -4 80 80 NNW 18 30 30.09 1019 10 16 N/A
4:40 am 04:40 Cloudy 32 undefined 25 -4 75 75 NNW 16 26 30.06 1018 10 16 N/A
4:53 am 04:53 Cloudy 32 undefined 25 -3.9 75 75 NNW 20 31 29.97 1015 10 16 N/A
5:53 am 05:53 Cloudy 32 undefined 26 -3.3 79 79 NNW 17 28 30.01 1016 10 16 N/A
6:53 am 06:53 Cloudy 32 undefined 26 -3.3 79 79 NNW 12 19 30.07 1018 10 16 N/A
7:53 am 07:53 Cloudy with Light Snow 32 undefined 27 -2.8 82 82 NNW 13 20 30.10 1019 5 8 N/A
8:04 am 08:04 Cloudy with Light Snow 30 -1 28 -2 93 93 NNW 14 22 30.18 1022 2 3 N/A
8:33 am 08:33 Windy with Snow Likely 31 -0.6 29 -1.7 92 92 NNW 20 31 30.18 1022 1 2 N/A
8:53 am 08:53 Cloudy with Light Snow 31 -0.6 28 -2.2 89 89 NNW 17 28 30.12 1020 1 2 0.01 0.25
9:03 am 09:03 Cloudy with Light Snow 31 -0.6 28 -2.2 89 89 NNW 17 28 30.18 1022 3 5 N/A
9:53 am 09:53 Cloudy 32 undefined 26 -3.3 79 79 NW 18 30 30.11 1020 10 16 N/A
10:53 am 10:53 Cloudy 34 1.1 28 -2.2 79 79 NNW 17 28 30.12 1020 10 16 N/A
11:53 am 11:53 Cloudy 35 1.7 28 -2.2 76 76 NW 21 33 30.10 1019 10 16 N/A
12:53 pm 12:53 Cloudy 39 3.9 28 -2.2 65 65 NW 18 30 30.09 1019 10 16 N/A
1:34 pm 13:34 Mostly Cloudy 41 5 28 -2.2 60 60 NNW 18 30 30.06 1018 10 16 N/A
1:53 pm 13:53 Mostly Cloudy 41 5 28 -2.2 60 60 N 20 31 30.06 1018 10 16 N/A
2:53 pm 14:53 Mostly Sunny 43 6.1 29 -1.7 58 58 N 18 30 30.05 1018 10 16 N/A
3:53 pm 15:53 Mostly Sunny 43 6.1 28 -2.2 56 56 N 20 31 30.06 1018 10 16 N/A
4:53 pm 16:53 Sunny 42 5.6 26 -3.3 53 53 N 20 31 30.06 1018 10 16 N/A
5:53 pm 17:53 Sunny 40 4.4 26 -3.3 58 58 N 15 24 30.06 1018 10 16 N/A
6:53 pm 18:53 Sunny 36 2.2 25 -3.9 64 64 N 6 9 30.10 1019 10 16 N/A
7:53 pm 19:53 Clear 30 -1.1 25 -3.9 82 82 NNW 5 7 30.12 1020 10 16 N/A
8:53 pm 20:53 Mostly Clear 29 -1.7 25 -3.9 85 85 NNE 8 13 30.12 1020 10 16 N/A
9:53 pm 21:53 Clear 28 -2.2 24 -4.4 85 85 N N/A 30.12 1020 10 16 N/A
10:53 pm 22:53 Clear 25 -3.9 23 -5 92 92 N N/A 30.12 1020 10 16 N/A
11:53 pm 23:53 Clear 25 -3.9 22 -5.6 88 88 ENE 6 9 30.12 1020 10 16 N/A

Powered by AerisWeather